Location: Châteauvieux
(47.2310°N, 1.3828°E)
Time: 03:19:50
(UTC+00:00)

Cosmos 2098 Rocket - Pass Details

Date: 15 May 2026
Orbit: 346 x 838 km, 82.9° (Epoch: 8 June)

Event Time Altitude Azimuth Distance (km) Brightness Sun altitude
Exits shadow 20:53:55 18° 151° (SSE) 1,644 4.6 -12.7°
Maximum altitude 20:56:55 38° 93° (E) 972 3.7 -13.1°
Drops below altitude 10° 21:00:47 10° 25° (NNE) 1,881 5.8 -13.5°
Sets 21:02:54 0° 17° (NNE) 2,697 6.8 -13.8°
